Time,TemperatureF,DewpointF,PressureIn,WindDirection,WindDirectionDegrees,WindSpeedMPH,WindSpeedGustMPH,Humidity,HourlyPrecipIn,Conditions,Clouds,dailyrainin,SoftwareType,DateUTC
2013-09-10 00:23:00,80.0,68.0,29.95,SE,135,3.0,3.0,67,-99.99,,,-99.99,,2013-09-10 05:23:00,
2013-09-10 00:53:00,79.0,68.0,29.98,SW,225,3.0,3.0,70,-99.99,,,-99.99,,2013-09-10 05:53:00,
2013-09-10 01:22:00,78.0,68.0,29.98,East,90,2.0,2.0,71,-99.99,,,-99.99,,2013-09-10 06:22:00,
2013-09-10 01:52:00,78.0,69.0,29.98,SE,135,1.0,1.0,73,-99.99,,,-99.99,,2013-09-10 06:52:00,
2013-09-10 02:22:00,77.0,68.0,29.98,ESE,113,2.0,3.0,74,-99.99,,,-99.99,,2013-09-10 07:22:00,
2013-09-10 02:52:00,76.0,67.0,29.98,SW,225,1.0,1.0,75,-99.99,,,-99.99,,2013-09-10 07:52:00,
2013-09-10 03:22:00,75.0,67.0,29.98,SSW,203,2.0,2.0,76,-99.99,,,-99.99,,2013-09-10 08:22:00,
2013-09-10 03:52:00,76.0,65.0,29.98,West,270,1.0,1.0,70,-99.99,,,-99.99,,2013-09-10 08:52:00,
2013-09-10 04:21:00,77.0,65.0,29.98,West,270,2.0,2.0,67,-99.99,,,-99.99,,2013-09-10 09:21:00,
2013-09-10 04:54:00,77.0,63.0,29.98,NE,45,3.0,3.0,62,-99.99,,,-99.99,,2013-09-10 09:54:00,
2013-09-10 05:23:00,77.0,63.0,30.01,West,270,2.0,2.0,62,-99.99,,,-99.99,,2013-09-10 10:23:00,
2013-09-10 05:53:00,76.0,62.0,30.01,North,0,3.0,3.0,62,-99.99,,,-99.99,,2013-09-10 10:53:00,
2013-09-10 06:22:00,76.0,62.0,30.01,ESE,113,3.0,6.0,62,-99.99,,,-99.99,,2013-09-10 11:22:00,
2013-09-10 06:52:00,75.0,62.0,30.04,SSE,158,2.0,3.0,63,-99.99,,,-99.99,,2013-09-10 11:52:00,
2013-09-10 07:22:00,75.0,62.0,30.04,SE,135,0.0,0.0,65,-99.99,,,-99.99,,2013-09-10 12:22:00,
2013-09-10 07:52:00,77.0,64.0,30.07,NE,45,0.0,1.0,65,-99.99,,,-99.99,,2013-09-10 12:52:00,
2013-09-10 20:42:00,80.0,62.0,30.04,SSE,158,1.0,2.0,55,-99.99,,,-99.99,,2013-09-11 01:42:00,
2013-09-10 20:53:00,80.0,63.0,30.07,North,0,2.0,2.0,57,-99.99,,,-99.99,,2013-09-11 01:53:00,
2013-09-10 21:22:00,79.0,62.0,30.04,ESE,113,2.0,3.0,56,-99.99,,,-99.99,,2013-09-11 02:22:00,
2013-09-10 21:52:00,79.0,63.0,30.07,ESE,113,0.0,1.0,58,-99.99,,,-99.99,,2013-09-11 02:52:00,
2013-09-10 22:22:00,78.0,63.0,30.07,ESE,113,2.0,2.0,60,-99.99,,,-99.99,,2013-09-11 03:22:00,
2013-09-10 22:55:00,78.0,64.0,30.07,ENE,68,2.0,2.0,62,-99.99,,,-99.99,,2013-09-11 03:55:00,
2013-09-10 23:14:00,78.0,64.0,30.07,ESE,113,2.0,3.0,62,-99.99,,,-99.99,,2013-09-11 04:14:00,
2013-09-10 23:24:00,79.0,64.0,30.07,South,180,1.0,3.0,61,-99.99,,,-99.99,,2013-09-11 04:24:00,
2013-09-10 23:54:00,79.0,64.0,30.07,SSW,203,3.0,3.0,60,-99.99,,,-99.99,,2013-09-11 04:54:00,